Hourly Weather Ryabinovka

Today, 22 April, Thursday

Time Temperature Precipitation Wind Pressure Humidity
00:00 +6°C° 0 mm 2 mps 741 mmHg 86%
01:00 +6°C° 0 mm 2 mps 741 mmHg 88%
02:00 +6°C° 0 mm 2 mps 741 mmHg 88%
03:00 +5°C° 0 mm 2 mps 741 mmHg 89%
04:00 +5°C° 0 mm 2 mps 741 mmHg 90%
05:00 +5°C° 0 mm 2 mps 741 mmHg 91%
06:00 +5°C° 0 mm 3 mps 741 mmHg 86%
07:00 +8°C° 0 mm 3 mps 741 mmHg 81%
08:00 +8°C° 0 mm 4 mps 741 mmHg 75%
09:00 +10°C° 0.2 mm 5 mps 741 mmHg 68%
10:00 +12°C° 0.2 mm 5 mps 741 mmHg 60%
11:00 +14°C° 0.2 mm 6 mps 741 mmHg 52%
12:00 +14°C° 0.2 mm 6 mps 741 mmHg 52%
13:00 +14°C° 0.2 mm 6 mps 741 mmHg 51%
14:00 +14°C° 0.2 mm 6 mps 741 mmHg 51%
15:00 +13°C° 0.4 mm 6 mps 741 mmHg 59%
16:00 +10°C° 0.4 mm 6 mps 741 mmHg 66%
17:00 +9°C° 0.4 mm 5 mps 742 mmHg 73%
18:00 +8°C° 0 mm 4 mps 742 mmHg 76%
19:00 +7°C° 0 mm 4 mps 742 mmHg 78%
20:00 +5°C° 0 mm 3 mps 742 mmHg 80%
21:00 +5°C° 0 mm 3 mps 742 mmHg 78%
22:00 +4°C° 0 mm 3 mps 742 mmHg 76%
23:00 +4°C° 0 mm 3 mps 742 mmHg 74%

Tomorrow, 23 April, Friday

Time Temperature Precipitation Wind Pressure Humidity
00:00 +3°C° 0 mm 3 mps 742 mmHg 76%
01:00 +3°C° 0 mm 4 mps 742 mmHg 78%
02:00 +1°C° 0 mm 4 mps 742 mmHg 81%
03:00 0°C° 0 mm 4 mps 743 mmHg 83%
04:00 0°C° 0 mm 4 mps 743 mmHg 85%
05:00 -1°C° 0 mm 4 mps 743 mmHg 87%
06:00 0°C° 0 mm 5 mps 743 mmHg 82%
07:00 +1°C° 0 mm 5 mps 743 mmHg 77%
08:00 +1°C° 0 mm 6 mps 744 mmHg 72%
09:00 +2°C° 0 mm 6 mps 744 mmHg 69%
10:00 +2°C° 0 mm 6 mps 744 mmHg 66%
11:00 +3°C° 0 mm 6 mps 744 mmHg 63%
12:00 +3°C° 0.1 mm 6 mps 744 mmHg 63%
13:00 +4°C° 0.1 mm 6 mps 744 mmHg 63%
14:00 +4°C° 0.1 mm 6 mps 744 mmHg 63%
15:00 +5°C° 0.2 mm 5 mps 744 mmHg 61%
16:00 +5°C° 0.2 mm 5 mps 744 mmHg 59%
17:00 +6°C° 0.2 mm 5 mps 744 mmHg 58%
18:00 +4°C° 0.2 mm 4 mps 744 mmHg 65%
19:00 +3°C° 0.2 mm 4 mps 744 mmHg 72%
20:00 +2°C° 0.2 mm 3 mps 744 mmHg 79%
21:00 +1°C° 0.1 mm 3 mps 744 mmHg 82%
22:00 0°C° 0.1 mm 4 mps 744 mmHg 86%
23:00 -1°C° 0.1 mm 4 mps 744 mmHg 89%

Day after tomorrow, 24 April, Saturday

Time Temperature Precipitation Wind Pressure Humidity
00:00 -1°C° 0.1 mm 4 mps 744 mmHg 90%
01:00 -2°C° 0.1 mm 4 mps 744 mmHg 90%
02:00 -2°C° 0.1 mm 4 mps 744 mmHg 91%
03:00 -2°C° 0 mm 5 mps 744 mmHg 89%
04:00 -2°C° 0 mm 5 mps 744 mmHg 88%
05:00 -2°C° 0 mm 5 mps 744 mmHg 86%
06:00 -2°C° 0 mm 6 mps 745 mmHg 82%
07:00 -2°C° 0 mm 6 mps 745 mmHg 77%
08:00 -2°C° 0 mm 6 mps 745 mmHg 73%
09:00 +1°C° 0.1 mm 6 mps 745 mmHg 66%
10:00 +2°C° 0.1 mm 6 mps 745 mmHg 59%
11:00 +3°C° 0.1 mm 7 mps 745 mmHg 52%
12:00 +4°C° 0.2 mm 7 mps 745 mmHg 51%
13:00 +4°C° 0.2 mm 7 mps 745 mmHg 49%
14:00 +5°C° 0.2 mm 7 mps 745 mmHg 48%
15:00 +4°C° 0.3 mm 7 mps 745 mmHg 52%
16:00 +4°C° 0.3 mm 7 mps 745 mmHg 57%
17:00 +4°C° 0.3 mm 6 mps 745 mmHg 62%
18:00 +2°C° 0 mm 5 mps 745 mmHg 63%
19:00 +1°C° 0 mm 5 mps 745 mmHg 65%
20:00 0°C° 0 mm 4 mps 745 mmHg 66%
21:00 -1°C° 0 mm 4 mps 745 mmHg 69%
22:00 -1°C° 0 mm 4 mps 745 mmHg 72%
23:00 -2°C° 0 mm 4 mps 745 mmHg 75%

25 April, Sunday

Time Temperature Precipitation Wind Pressure Humidity
00:00 -2°C° 0 mm 4 mps 745 mmHg 76%
01:00 -3°C° 0 mm 4 mps 745 mmHg 78%
02:00 -3°C° 0 mm 4 mps 745 mmHg 79%
03:00 -4°C° 0 mm 4 mps 745 mmHg 81%
04:00 -4°C° 0 mm 4 mps 745 mmHg 84%
05:00 -4°C° 0 mm 4 mps 745 mmHg 87%
06:00 -4°C° 0 mm 5 mps 745 mmHg 80%
07:00 -2°C° 0 mm 5 mps 745 mmHg 74%
08:00 -2°C° 0 mm 6 mps 745 mmHg 68%
09:00 -1°C° 0 mm 6 mps 745 mmHg 63%
10:00 +1°C° 0 mm 6 mps 745 mmHg 57%
11:00 +2°C° 0 mm 6 mps 745 mmHg 52%
12:00 +3°C° 0.1 mm 6 mps 745 mmHg 50%
13:00 +4°C° 0.1 mm 6 mps 745 mmHg 48%
14:00 +5°C° 0.1 mm 6 mps 744 mmHg 46%
15:00 +4°C° 0.2 mm 6 mps 744 mmHg 50%
16:00 +4°C° 0.2 mm 6 mps 744 mmHg 55%
17:00 +4°C° 0.2 mm 6 mps 744 mmHg 59%
18:00 +2°C° 0.1 mm 5 mps 744 mmHg 66%
19:00 +1°C° 0.1 mm 4 mps 744 mmHg 73%
20:00 +1°C° 0.1 mm 3 mps 744 mmHg 79%
21:00 +1°C° 0 mm 3 mps 744 mmHg 82%
22:00 0°C° 0 mm 3 mps 744 mmHg 86%
23:00 -1°C° 0 mm 3 mps 744 mmHg 89%

26 April, Monday

Time Temperature Precipitation Wind Pressure Humidity
00:00 -1°C° 0 mm 3 mps 744 mmHg 89%
01:00 -1°C° 0 mm 3 mps 744 mmHg 89%
02:00 -1°C° 0 mm 3 mps 744 mmHg 89%
03:00 -2°C° 0 mm 3 mps 744 mmHg 90%
04:00 -2°C° 0 mm 3 mps 744 mmHg 91%
05:00 -2°C° 0 mm 3 mps 744 mmHg 92%
06:00 -1°C° 0 mm 3 mps 744 mmHg 86%
07:00 -1°C° 0 mm 4 mps 744 mmHg 79%
08:00 0°C° 0 mm 4 mps 744 mmHg 72%
09:00 +1°C° 0.1 mm 4 mps 744 mmHg 67%
10:00 +1°C° 0.1 mm 5 mps 744 mmHg 62%
11:00 +2°C° 0.1 mm 5 mps 744 mmHg 57%
12:00 +3°C° 0.2 mm 5 mps 744 mmHg 56%
13:00 +3°C° 0.2 mm 5 mps 743 mmHg 54%
14:00 +4°C° 0.2 mm 6 mps 743 mmHg 52%
15:00 +5°C° 0.1 mm 5 mps 743 mmHg 54%
16:00 +5°C° 0.1 mm 5 mps 743 mmHg 55%
17:00 +5°C° 0.1 mm 4 mps 742 mmHg 57%
18:00 +3°C° 0 mm 4 mps 742 mmHg 64%
19:00 +1°C° 0 mm 4 mps 742 mmHg 71%
20:00 +1°C° 0 mm 3 mps 742 mmHg 78%
21:00 0°C° 0 mm 4 mps 742 mmHg 82%
22:00 0°C° 0 mm 4 mps 742 mmHg 86%
23:00 0°C° 0 mm 4 mps 742 mmHg 90%

27 April, Tuesday

Time Temperature Precipitation Wind Pressure Humidity
00:00 0°C° 0 mm 4 mps 742 mmHg 88%
01:00 0°C° 0 mm 4 mps 742 mmHg 86%
02:00 0°C° 0 mm 4 mps 742 mmHg 84%
03:00 0°C° 0 mm 4 mps 742 mmHg 86%
04:00 0°C° 0 mm 4 mps 742 mmHg 88%
05:00 -1°C° 0 mm 4 mps 742 mmHg 90%
06:00 0°C° 0 mm 4 mps 742 mmHg 89%
07:00 0°C° 0 mm 4 mps 743 mmHg 88%
08:00 +1°C° 0 mm 4 mps 743 mmHg 88%
09:00 +1°C° 0 mm 4 mps 743 mmHg 89%
10:00 +1°C° 0 mm 4 mps 743 mmHg 91%
11:00 +1°C° 0 mm 4 mps 743 mmHg 93%
12:00 +3°C° 0.1 mm 4 mps 743 mmHg 90%
13:00 +3°C° 0.1 mm 4 mps 743 mmHg 87%
14:00 +4°C° 0.1 mm 4 mps 743 mmHg 84%
15:00 +5°C° 0.1 mm 4 mps 743 mmHg 81%
16:00 +5°C° 0.1 mm 4 mps 743 mmHg 77%
17:00 +6°C° 0.1 mm 4 mps 743 mmHg 74%
18:00 +5°C° 0.1 mm 3 mps 743 mmHg 78%
19:00 +4°C° 0.1 mm 3 mps 743 mmHg 82%
20:00 +4°C° 0.1 mm 2 mps 743 mmHg 87%
21:00 +3°C° 0 mm 2 mps 743 mmHg 88%
22:00 +2°C° 0 mm 2 mps 743 mmHg 89%
23:00 +2°C° 0 mm 2 mps 743 mmHg 91%
Show more